Back to catalog

QIANFAN-140

AliveCommunicationsPO
NORAD 69086·PAYLOAD·🇨🇳 China

Launched May 12, 2026 from Taiyuan Satellite Launch Center

Loading…

Next Passes (next 24 hours)

TLE

FreshSource: Space-Track

Epoch: Sep 14, 2026, 13:52 UTC

1 69086U 26104P   26257.57843236  .00000128  00000-0  17978-3 0  9998
2 69086  88.9908 332.3549 0002447 113.8277 246.3131 13.51022222 17220

Track QIANFAN-140 in real time with AllMySat

Download on the App Store